Regional Weather Roundup
Issued by NWS

Home | Current Version | Previous Version | Graphics & Text | Print | Product List | Glossary On
Versions: 1 2 3 4 5 6 7 8 9 10 11 12 13 14 15 16 17 18 19 20 21 22 23 24 25 26 27 28 29 30 31 32 33 34 35 36 37 38 39 40 41 42 43 44 45 46 47 48 49 50
000
ASUS45 KBOU 190507
RWRCO

WEATHER ROUNDUP FOR COLORADO
NATIONAL WEATHER SERVICE DENVER/BOULDER CO
1100 PM MDT SAT APR 18 2015

NOTE: "FAIR" INDICATES FEW OR NO CLOUDS BELOW 12000 FEET WITH NO
SIGNIFICANT WEATHER AND/OR OBSTRUCTIONS TO VISIBILITY.

COZ001>005-013-030-031-190600-
...NORTHWEST COLORADO...

CITY           SKY/WX    TMP DP  RH WIND       PRES   REMARKS
CRAIG          MOCLDY    35  31  85 SW10      30.08R WCI  27
HAYDEN         MOCLDY    34  28  80 CALM      30.06R
MEEKER         PTCLDY    32  29  88 NE5       30.07S WCI  27
MOUNT WERNER   NOT AVBL
STEAMBOAT SPGS CLOUDY    33  31  94 E3        30.06S
WALDEN         CLOUDY    32  30  93 N15G22    30.04S WCI  22
$$

COZ006>008-011-190600-
...WEST CENTRAL VALLEYS...

CITY           SKY/WX    TMP DP  RH WIND       PRES   REMARKS
GRAND JUNCTION CLOUDY    39  37  92 E5        30.06F
MONTROSE       CLOUDY    37  36  96 W3        30.09F
EAGLE          CLOUDY    36  36 100 S3        30.08R
RIFLE          MOCLDY    33  32  96 S3        30.08R FOG
DELTA          MOCLDY    40  38  93 CALM      30.07F
NUCLA          CLOUDY    43  37  81 SW6       30.11S
$$

COZ017>023-064>068-190600-
...SOUTHWEST COLORADO...

CITY           SKY/WX    TMP DP  RH WIND       PRES   REMARKS
DURANGO        PTCLDY    43  25  49 SW7       29.98S
CORTEZ         PTCLDY    42  34  73 S5        30.04R
PAGOSA SPRINGS PTCLDY    33  28  80 CALM      29.99S
TELLURIDE      PTCLDY    34  25  70 NW7G20    30.11S WCI  28
WOLF CREEK PAS MOCLDY    21  14  73 S3        30.08S
$$

COZ009-010-012-014-032>034-037-058>063-190600-
...CENTRAL COLORADO...

CITY           SKY/WX    TMP DP  RH WIND       PRES   REMARKS
ASPEN          CLOUDY    31  30  96 NW6       30.05R WCI  25
BUENA VISTA    CLOUDY    33  24  70 NE3       29.98F
COPPER MTN     CLOUDY    25  19  80 W16G26    30.06R WCI  12
BERTHOUD PASS  CLOUDY    16   9  73 MISG      30.05R
COTTONWOOD PAS MOCLDY    30  23  74 NW14      30.00F WCI  20
GUNNISON       PTCLDY    30  25  80 CALM      30.04S
KREMMLING      MOCLDY    34  27  75 W3        30.05R
LEADVILLE      CLOUDY    25  21  85 NW8       30.01S WCI  16
MONARCH PASS   CLOUDY    19  18  93 MISG      30.14R
SALIDA         MOCLDY    38  25  60 CALM      30.05S
SUNLIGHT       FOG      N/A N/A N/A N6        30.13R VSB 1/2
WILKERSON PASS CLOUDY    21  18  86 N6G18     30.05R WCI  14
$$

COZ069>075-190600-
...SAN LUIS VALLEY/SANGRE DE CRISTO MOUNTAINS...

CITY           SKY/WX    TMP DP  RH WIND       PRES   REMARKS
ALAMOSA        PTCLDY    30  27  88 W3        29.96S
LA VETA PASS   MOCLDY    27  21  80 SW3       29.99R
SAGUACHE       MOCLDY    34  27  75 N8        29.99F WCI  27
$$

COZ035-036-038>040-190600-
...NORTHERN COLORADO FRONT RANGE...

CITY           SKY/WX    TMP DP  RH WIND       PRES   REMARKS
DENVER INTL AP CLOUDY    41  34  76 N18       29.96R
DMNS CITY PARK   N/A     41  32  69 N5        29.98R
AURORA         NOT AVBL
FRONT RANGE AP NOT AVBL
ERIE MUNI ARPT PTCLDY    35  34  93 NW5       29.98R WCI  31
BOULDER MUN AP PTCLDY    37  34  87 W3        29.97R
CENTENNIAL     MOCLDY    39  33  79 N13       29.96S
BROOMFIELD     NOT AVBL
FORT COLLINS   CLEAR     43  32  65 NW16G23   29.99S
LONGMONT       CLEAR     39  33  81 W3        30.00R
$$

COZ041-046-047-076>085-087-088-190600-
...PIKES PEAK/PALMER DIVIDE AND SOUTHERN FOOTHILLS...

CITY           SKY/WX    TMP DP  RH WIND       PRES   REMARKS
COLO. SPRINGS  MOCLDY    39  31  72 NW17      29.94R
A. F. ACADEMY  PTCLDY    38  32  81 N16G25    29.94S
ELLICOTT       MIX PCPN N/A N/A N/A N21       29.91R
FALCON         MOCLDY    36  31  82 N15G23    29.94S
FORT CARSON    PTCLDY    38  31  74 N8        29.92R
LIMON          LGT RAIN  40  38  93 NW18G25   29.90R
MONUMENT HILL  CLOUDY    32  32 100 N15       29.95R WCI  22
TRINIDAD       CLOUDY    40  33  76 NW9       29.93R
$$

COZ042>045-048>051-090-091-190600-
...NORTHEAST COLORADO...

CITY           SKY/WX    TMP DP  RH WIND       PRES   REMARKS
GREELEY ARPT   PTCLDY    39  30  70 NW9       29.98R
AKRON          CLOUDY    43  40  89 N24       29.88S
BURLINGTON     CLOUDY    46  41  82 N15       29.82S
WRAY           CLOUDY    49  42  78 N14G20    29.85R
STERLING       MOCLDY    45  41  87 N22G29    29.87F
HOLYOKE        MOCLDY    48  43  81 N14       29.87R
FORT MORGAN    CLOUDY    44  38  81 N24G30    29.92S
$$

COZ086-089-092>099-190600-
...SOUTHEAST COLORADO...

CITY           SKY/WX    TMP DP  RH WIND       PRES   REMARKS
PUEBLO         CLOUDY    45  36  70 NW9       29.92R
LA JUNTA       LGT RAIN  47  37  68 N18       29.88R
LAMAR          LGT RAIN  45  41  86 NW5       29.83S
SPRINGFIELD      N/A     38  35  89 W10       29.84S
$$


USA.gov is the U.S. government's official web portal to all federal, state and local government web resources and services.